Location: The Saddle
(36.8333°N, 80.3417°W)
Time: 08:22:38
(UTC-05:00)

Vanguard 2 Rocket - Pass Details

Date: 13 December 2023
Orbit: 555 x 3309 km, 32.9° (Epoch: 02 March)

Event Time Altitude Azimuth Distance (km) Brightness Sun altitude
Rises 12:56:07 0° 246° (WSW) 4,948 11.1 29.2°
Reaches altitude 10° 12:58:50 10° 244° (WSW) 4,257 10.9 29.1°
Maximum altitude 13:11:24 70° 164° (SSE) 2,791 10.2 28.6°
Drops below altitude 10° 13:30:51 10° 86° (E) 6,248 11.0 27.4°
Sets 13:35:51 0° 85° (E) 7,292 11.3 27.1°
